{"data":{"norad_id":47272,"intl_designator":"2020-100Q","name":"ONEWEB-0126","alt_names":[],"object_type":"PAYLOAD","status":"ACTIVE","operator":null,"country":"UK","launch_date":"2020-12-18","launch_site_code":"VOSTO","launch_vehicle":null,"mission":null,"orbit_class":"UNKNOWN","rcs_meters":null,"size_class":null,"mass_kg":null,"dimensions":null,"purposes":["comms"],"wikipedia_slug":null,"has_3d_model":false,"image_url":null,"decayed_at":null,"tle_current":{"epoch":"2026-05-25T02:17:07.689696Z","epoch_age_seconds":77544,"freshness":"FRESH","line1":"1 47272U 20100Q   26145.09522789  .00000275  00000+0  72875-3 0  9990","line2":"2 47272  87.8954 355.2637 0001500 106.9654 253.1639 13.12444263261674","mean_motion":13.12444263,"eccentricity":0.00015,"inclination_deg":87.8954,"raan_deg":355.2637,"arg_perigee_deg":106.9654,"mean_anomaly_deg":253.1639,"bstar":0.00072875,"rev_number":26167,"period_min":109.71894507036,"perigee_km":1212.5796421679,"apogee_km":1214.8571987941,"semimajor_km":7591.855420481,"source":"CELESTRAK","updated_at":"2026-05-25T13:38:22.381976Z"}}}